星链-35797(STARLINK-35797)

导读 | 豆包AI

STARLINK-35850是美国SpaceX公司星链星座的第二代低轨通信卫星,于2025年11月6日发射入轨。作为星链Gen2星座组网卫星,它配备增强型相控阵天线与激光星间链路,单星容量超100Gbps,可提供百兆以上下行速率,支持全球宽带接入与手机直连潜力。卫星采用氪离子霍尔推进器,具备自主避撞能力,退役后会主动离轨在大气层焚毁,服务全球覆盖的高速低延迟互联网接入。

Basic Information
目录编号:
66352
目录名称:
STARLINK-35850
国际标识:
2025-254E
轨道中心:
EARTH
卫星名称:
星链-35797
卫星全名:
星链-35797(STARLINK-35797)
卫星状态:
在轨 (已飞行174 天)
发射日期:
2025-11-06 UTC
国别 :
美国 (US)
星等 :
--
Orbit Information
数据来源 国际轨道数据 AOE轨道数据
星历时间 2026-04-29T06:36:25+0800
7小时前
查看轨道信息
2026-04-22T20:00:00+0800
6天前
查看轨道信息
半长轴 6853.362km 6853.39km
偏心率 0.0000854 0.000158
轨道倾角 53.161° 53.160°
近地点辐角 87.222° 117.897°
升交点赤经 358.741° 28.662°
平近点角 272.887° 15.630°
近地点 474.639km 474.17km
远地点 475.811km 476.336km
周期 94.106分钟 94.106分钟
每日圈数 15.301968 15.301873
Detailed Information
固有亮度:
5
最大亮度:
2.5
卫星平台:
Starlink V1.0
覆盖范围:
全球
运营商:
太空探索技术公司
运营商所在国:
美国
制造商(研发单位):
太空探索技术公司
制造商所在国:
美国
使用方式:
暂无
Satellite Introduction
Starlink 计划是 SpaceX 推出的全球卫星互联网项目,通过发射低轨道卫星,为全球尤其是偏远地区提供高速、低延迟的互联网服务。自 2019 年起,Starlink 已部署数千颗卫星,旨在缩小全球数字鸿沟,推动互联网普及。该项目还为军事、航空等行业提供通信支持,带来广泛经济效益。
2D Orbit Map
3D Orbit Map
Orbit Altitude Analysis Chart
Orbit Inclination Analysis Chart
Orbit Comprehensive Analysis Chart
View Comprehensive Chart